STARLINK-35040

Last updated on Thu Oct 02 2025 00:02:05 GMT+0000 (Coordinated Universal Time)

1 65480U 25195Y 25274.27973450 .00120239 00000+0 21302-2 0 9998 2 65480 53.1593 280.9942 0001342 81.9374 278.1787 15.49397497 5538
UTC large
Height (km)
Speed (km/s)
/
Latitude / Longitude
Inclination (degrees)
Orbital Period (minutes)
Azimuth
Elevation
Range (km)
Doppler Factor

Next 0 passes for location: London (51.5072 / 0.1276)

Sorry there are no passes over London.
STARLINK-35040